Tracking 19638 objects as of 22-Apr-2019
HD Live streaming from Space Station
objects crossing your sky now

THORAD AGENA D DEB

Track THORAD AGENA D DEB now!
10-day predictions


NORAD ID: 4710
Int'l Code: 1970-025BY
Perigee: 1,058.2 km
Apogee: 1,065.3 km
Inclination: 100.0 °
Period: 106.3 minutes
Semi major axis: 7432 km
RCS: 0.052 m2 (small)
Launch date: April 8, 1970
Source: United States (US)
Launch site: AIR FORCE WESTERN TEST RANGE (AFWTR)

Note: This is SATELLITE DEBRIS
aabbcc
Your satellite tracking list
Your tracking list is empty




NASA's NSSDC Master Catalog

Two Line Element Set (TLE):
1  4710U 70025BY  19110.79157994  .00000075  00000-0  17581-3 0  9996
2  4710  99.9515  35.6473 0004809 146.8043 274.5708 13.54817214419808
Source of the keplerian elements: AFSPC